Miscellaneous Local Product
Issued by NWS North Platte, NE

Home | Current Version | Previous Version | Graphics & Text | Print | Product List | Glossary On
Versions: 1 2 3 4 5 6 7 8 9 10 11 12 13 14 15 16 17 18 19 20 21 22 23 24 25 26 27 28 29 30 31 32 33 34 35 36 37 38 39 40 41 42 43 44 45 46 47 48 49 50
000
AXUS43 KLBF 310510
MISLBF


WESTERN AND NORTH CENTRAL NEBRASKA HOURLY WEATHER ROUNDUP
NATIONAL WEATHER SERVICE NORTH PLATTE NE
1200 AM CDT FRI OCT 31 2014

***STATIONS NOT REPORTING VARIABLES SUCH AS SKY/WEATHER OR
PRESSURE ARE PROVIDED BY THE NEBRASKA DEPARTMENT OF
ROADS...RAWS...AND APRS NETWORKS...AND ARE NOT UNDER
NATIONAL WEATHER SERVICE QUALITY CONTROL***

...OBSERVATIONS IN AND NEAR THE EASTERN PANHANDLE OF NEBRASKA...

CITY           SKY/WX    TMP DP  RH WIND       PRES   REMARKS
PINE RIDGE     CLEAR     25  23  92 NE7       30.46S WCI  17
CHADRON        CLEAR     32  28  85 NE3       30.47R
ALLIANCE       CLEAR     29  26  89 CALM      30.44R
SIDNEY         CLEAR     34  28  79 E6        30.43R WCI  29
WHITECLAY        N/A     26  23  89 CALM        N/A
RUSHVILLE        N/A     24  22  96 W7          N/A  WCI  15
CRESCENT LAKE    N/A     35  29  79 CALM        N/A
LISCO            N/A     38  29  69 NE9         N/A  WCI  32
LEWELLEN         N/A     38  29  72 E6          N/A  WCI  33
$$

...OBSERVATIONS IN NORTH CENTRAL NEBRASKA...

CITY           SKY/WX    TMP DP  RH WIND       PRES   REMARKS
VALENTINE      CLOUDY    32  28  85 NE13      30.50R WCI  22
THEDFORD       CLEAR     32  30  93 N3        30.47R
AINSWORTH      CLOUDY    32  30  92 NE10      30.48R WCI  24
O`NEILL        CLOUDY    36  31  82 N20       30.48S WCI  25
ORD            MOCLDY    35  31  85 N12       30.45R WCI  27
BROKEN BOW     CLEAR     36  31  82 N12       30.44R WCI  28
BROWNLEE         N/A     32  31  96 N15         N/A  WCI  22
SPRINGVIEW       N/A     32  28  84 CALM        N/A
BREWSTER         N/A     33  31  92 CALM        N/A
ROSE             N/A     33  33  99 N7          N/A  WCI  27
NEWPORT          N/A     35  32  88 E5          N/A  WCI  31
SARGENT          N/A     35  31  85 NE3         N/A
COMSTOCK         N/A     38  35  89 N6          N/A  WCI  33
CHAMBERS         N/A     34  30  85 N7          N/A  WCI  28
$$

...OBSERVATIONS IN SOUTHWEST NEBRASKA AND FAR NORTHEAST COLORADO...

CITY           SKY/WX    TMP DP  RH WIND       PRES   REMARKS
WRAY           FAIR      39  29  69 NE9       30.43R WCI  32
HOLYOKE        FAIR      36  30  80 E3        30.44R
IMPERIAL       CLEAR     35  28  75 NE6       30.44R WCI  30
OGALLALA       CLEAR     36  31  82 NE5       30.44S WCI  32
NORTH PLATTE   CLEAR     34  29  82 E3        30.45R
MCCOOK         CLEAR     41  31  67 NE14      30.43R
LEXINGTON      CLEAR     37  32  84 N7        30.44S WCI  31
PAXTON           N/A     40  31  71 NE3         N/A
SUTHERLAND       N/A     32  27  80 E6          N/A  WCI  26
BRADY            N/A     34  29  80 CALM        N/A
GOTHENBURG       N/A     39  31  72 N3          N/A
CALLAWAY         N/A     36  32  84 NE9         N/A  WCI  29
$$

...SOME WEATHER OBSERVATIONS FROM AROUND THE REGION...

CITY           SKY/WX    TMP DP  RH WIND       PRES   REMARKS
DENVER         PTCLDY    40  26  57 S12       30.40R WCI  33
LARAMIE        CLEAR     39  24  55 SE18      30.38F WCI  30
CHEYENNE       CLEAR     35  25  66 W5        30.42R WCI  31
SCOTTSBLUFF    CLEAR     36  31  82 E8        30.43S WCI  30
RAPID CITY     CLOUDY    33  30  88 SE6       30.48S WCI  28
PIERRE         CLOUDY    31  22  69 NE10      30.56R WCI  22
WINNER         CLOUDY    36  28  73 NE13      30.53R WCI  27
SIOUX FALLS    CLEAR     30  20  66 N14       30.48R WCI  19
OMAHA          CLOUDY    42  31  64 N28G40    30.38R
GRAND ISLAND   CLEAR     38  32  79 N13       30.43R WCI  30
KANSAS CITY    CLEAR     49  41  74 N13       30.22R
WICHITA        CLEAR     54  36  50 N15       30.28R
HAYS           CLEAR     46  30  53 N14       30.38R
LIBERAL        CLEAR     41  27  56 N8        30.38R
GOODLAND       CLEAR     37  28  70 E6        30.43R WCI  32
$$



USA.gov is the U.S. government's official web portal to all federal, state and local government web resources and services.